Home   Weather   Limburg an der Lahn   Past weeks

Flag for Germany Past Weather in Limburg an der Lahn, Hesse, Germany — Yesterday and Last 2 Weeks

39 °F

Rain. Partly sunny.

Feels Like: 34 °F
Forecast: 39 / 51 °F
Wind: 8 mph from Northwest

Location: Hessen

Current Time: Oct 22, 2016 at 9:03:50 AM

Latest Report: Oct 22, 2016 at 8:20 AM

Visibility: N/A

Pressure: 29.86 "Hg

Humidity: 100%

Dew Point: 39 °F

Location of Limburg an der LahnLocation

Past Weather in Limburg an der Lahn — Graph


Limburg an der Lahn Temperature Yesterday

Maximum temperature yesterday: 41 °F (at 11:20 AM)
Minimum temperature yesterday: 37 °F (at 6:50 PM)
Average temperature yesterday: 39 °F

High & Low Weather Summary for the Past Weeks

High59 °F (Oct 16, 2:50 PM)100% (Oct 7, 7:20 AM)30.24 "Hg (Oct 7, 7:20 AM)
Low37 °F (Oct 11, 7:50 AM)59% (Oct 16, 3:50 PM)29.68 "Hg (Oct 14, 7:50 PM)
Average45 °F92%30.04 "Hg
* Reported Oct 7 7:20 AM — Oct 22 7:50 AM, Limburg an der Lahn, Weather by CustomWeather, © 2016

Note: Actual official high and low records may vary slightly from our data, if they occured in-between our weather recording intervals... More about our weather records


Limburg an der Lahn Weather History for the Previous 24 Hours

Scroll right to see more
Time TempWeatherWind HumidityBarometerVisibility
7:50 AM
Sat, Oct 22
41 °FRain. Passing clouds.9 mph100%29.86 "Hg5 mi
8:50 PM
Fri, Oct 21
37 °FFog.9 mph100%29.92 "Hg3 mi
8:20 PM37 °FPartly cloudy.8 mph100%29.92 "Hg4 mi
7:50 PM37 °FPartly cloudy.9 mph100%29.92 "Hg4 mi
7:20 PM37 °FPassing clouds.12 mph100%29.92 "Hg4 mi
6:50 PM37 °FPartly cloudy.7 mph100%29.92 "Hg4 mi
6:20 PM39 °FFog.7 mph100%29.92 "Hg3 mi
5:50 PM39 °FBroken clouds.6 mph100%29.95 "Hg4 mi
5:20 PM39 °FBroken clouds.8 mph93%29.95 "Hg5 mi
4:50 PM39 °FScattered clouds.9 mph93%29.95 "Hg5 mi
4:20 PM39 °FScattered clouds.9 mph87%29.95 "Hg5 mi
3:50 PM39 °FDrizzle. Broken clouds.13 mph93%29.95 "Hg4 mi
3:20 PM41 °FBroken clouds.13 mph93%29.95 "Hg5 mi
2:50 PM39 °FBroken clouds.12 mph93%29.95 "Hg4 mi
2:20 PM41 °FBroken clouds.10 mph87%29.95 "Hg4 mi
1:50 PM41 °FBroken clouds.9 mph93%29.95 "Hg5 mi
1:20 PM41 °FBroken clouds.9 mph93%29.95 "Hg4 mi
12:50 PM41 °FBroken clouds.6 mph93%29.95 "Hg5 mi
12:20 PM41 °FBroken clouds.8 mph93%29.95 "Hg4 mi
11:50 AM41 °FBroken clouds.9 mph93%29.95 "Hg4 mi
11:20 AM41 °FFog.9 mph100%29.92 "Hg3 mi
10:50 AM39 °FFog.9 mph100%29.95 "Hg2 mi
10:20 AM39 °FFog.7 mph100%29.92 "Hg2 mi
9:50 AM39 °FFog.6 mph100%29.92 "Hg2 mi
9:20 AM39 °FScattered clouds.7 mph100%29.92 "Hg2 mi
Weather by CustomWeather, © 2016

See weather overviewHow to use our weather pages